User: anonymous   Login
Location: Munkebjergskolens Observatorium
(55.3864°N, 10.3987°E)
Time: 12:57:40
(UTC+02:00)
Language:

DUCHIFAT 1 - Orbit

View from above orbital plane
View from above orbital plane
View from above satellite
View from above satellite

Ground track
Ground track

The orbit data is extracted from the following two-line orbital elements,

1 40021U 14033M   23086.89203640  .00010945  00000-0  96707-3 0  9990
2 40021  98.0499  48.3639 0011382 173.3766 186.7607 14.96480562477029
Epoch (UTC): 27 March 2023 21:24:31
Eccentricity: 0.0011382
inclination: 98.0499°
perigee height: 570 km
apogee height: 586 km
right ascension of ascending node: 48.3639°
argument of perigee: 173.3766°
revolutions per day: 14.96480562
mean anomaly at epoch: 186.7607°
orbit number at epoch: 47702

The dashed part of the orbit path shows where the satellite is in the earth's shadow,  

DLR